This is the latest recevied weather packets stored in our database for station/object IR9AK-10. If no packets are shown the sender has not sent any weather packets the latest 10 day(s).
| Time | Temp. | Humidity | Pressure | Rain* | Wind** | Luminosity | Snow |
|---|---|---|---|---|---|---|---|
| 1788053373 | 39.44° C | 21% | 1059.6 hPa | - | - | - | - |
| 1788052775 | 40° C | 23% | 1059.5 hPa | - | - | - | - |
| 1788052175 | 40° C | 24% | 1059.5 hPa | - | - | - | - |
| 1788051576 | 40.56° C | 27% | 1059.5 hPa | - | - | - | - |
| 1788051032 | 40.56° C | 29% | 1059.6 hPa | - | - | - | - |
| 1788050976 | 40.56° C | 29% | 1059.6 hPa | - | - | - | - |
| 1788050376 | 40.56° C | 27% | 1059.6 hPa | - | - | - | - |
| 1788049777 | 40.56° C | 25% | 1059.5 hPa | - | - | - | - |
| 1788049178 | 40.56° C | 19% | 1059.3 hPa | - | - | - | - |
| 1788048580 | 40.56° C | 18% | 1059.1 hPa | - | - | - | - |
| 1788047981 | 40.56° C | 18% | 1059 hPa | - | - | - | - |
| 1788047382 | 40.56° C | 18% | 1058.9 hPa | - | - | - | - |
| 1788046783 | 40.56° C | 18% | 1058.9 hPa | - | - | - | - |
| 1788046184 | 40.56° C | 18% | 1059 hPa | - | - | - | - |
| 1788045584 | 40.56° C | 18% | 1058.8 hPa | - | - | - | - |
| 1788044984 | 40.56° C | 18% | 1058.8 hPa | - | - | - | - |
| 1788044386 | 40.56° C | 18% | 1058.9 hPa | - | - | - | - |
| 1788043787 | 40.56° C | 18% | 1059 hPa | - | - | - | - |
| 1788043189 | 40.56° C | 19% | 1058.9 hPa | - | - | - | - |
| 1788042590 | 40.56° C | 19% | 1059 hPa | - | - | - | - |
| 1788041990 | 40.56° C | 19% | 1059.2 hPa | - | - | - | - |
| 1788041392 | 40.56° C | 19% | 1059.2 hPa | - | - | - | - |
| 1788040793 | 40.56° C | 19% | 1059.2 hPa | - | - | - | - |
| 1788040194 | 40.56° C | 19% | 1059.2 hPa | - | - | - | - |
| 1788039595 | 41.11° C | 18% | 1059.4 hPa | - | - | - | - |
* Rain since midnight (hover to see other rain measurements)
** Current wind speed in m/s (hover to see current wind gust speed)